FW8840 Weather Reports


time (UTC)temp
F
wind
direction
speed
knots
gust
knots
rain 1hr
in
rain 24hr
in
rain mn
in
humidity
%
barometer
mb
20260504015543 41 202 4.3 6.1 0.00 0.00 0.00 82 1019.0
20260504014524 41 210 3.5 5.2 0.00 0.00 0.00 82 1019.0
20260504013523 41 202 2.6 3.5 0.00 0.00 0.00 81 1019.0
20260504012523 41 202 3.5 3.5 0.00 0.00 0.00 82 1019.0
20260504011523 41 202 3.5 3.5 0.00 0.00 0.00 82 1018.9
20260504010523 41 202 3.5 3.5 0.00 0.00 0.00 81 1018.8
20260504005523 41 202 3.5 4.3 0.00 0.00 0.00 83 1018.8
20260504004523 41 197 2.6 3.5 0.00 0.00 0.00 83 1018.8
20260504003523 42 202 0.9 3.5 0.00 0.00 0.00 83 1018.8
20260504002523 42 202 3.5 5.2 0.00 0.00 0.00 84 1018.8
20260504001523 42 200 4.3 5.2 0.00 0.00 0.00 84 1018.8
20260504000603 42 202 5.2 6.1 0.00 0.00 0.00 85 1018.9
20260503235523 42 210 5.2 6.1 0.00 0.02 0.00 85 1018.8
20260503234522 42 202 5.2 6.1 0.00 0.02 0.00 86 1018.8
20260503233523 42 202 3.5 4.3 0.00 0.02 0.00 88 1018.8
20260503232542 42 202 2.6 3.5 0.00 0.02 0.00 88 1018.9
20260503231522 43 225 1.7 3.5 0.00 0.02 0.00 87 1018.8
20260503230522 44 225 1.7 3.5 0.00 0.02 0.00 84 1018.8
20260503225522 45 225 0.0 1.7 0.00 0.02 0.00 82 1018.7
20260503224522 46 225 2.6 3.5 0.00 0.02 0.00 81 1018.5
20260503223522 46 202 3.5 5.2 0.00 0.03 0.00 82 1018.4
20260503222522 46 196 5.2 7.0 0.00 0.03 0.00 82 1018.5
20260503221522 46 202 0.0 0.0 0.00 0.03 0.00 83 1018.5
20260503220522 47 90 0.0 0.0 0.00 0.03 0.00 82 1018.5
20260503215542 47 90 0.0 0.0 0.00 0.03 0.00 81 1018.4
20260503214522 48 90 0.0 0.0 0.00 0.03 0.00 81 1018.4
20260503213521 48 90 0.0 0.0 0.00 0.03 0.00 79 1018.4
20260503212521 49 90 0.0 0.0 0.00 0.03 0.00 77 1018.5
20260503211542 50 68 0.0 0.0 0.00 0.03 0.00 73 1018.5
20260503210521 51 68 0.0 0.0 0.00 0.03 0.00 69 1018.5
20260503205522 52 68 0.0 0.0 0.00 0.03 0.03 66 1018.5
20260503204522 52 102 2.6 3.5 0.00 0.03 0.03 64 1018.6
20260503203522 52 102 2.6 4.3 0.00 0.03 0.03 67 1018.5
20260503202543 51 114 4.3 8.7 0.00 0.03 0.03 70 1018.5
20260503201521 50 130 1.7 3.5 0.00 0.03 0.03 71 1018.5
20260503200541 49 150 3.5 6.1 0.00 0.03 0.03 72 1018.5
20260503195521 49 155 3.5 4.3 0.00 0.03 0.03 77 1018.5
20260503194521 50 202 0.9 1.7 0.00 0.03 0.03 75 1018.6
20260503193521 51 135 0.9 3.5 0.00 0.03 0.03 69 1018.5
20260503192520 50 102 1.7 6.1 0.00 0.03 0.03 68 1018.4
20260503191520 50 129 0.9 4.3 0.00 0.03 0.03 72 1018.4
20260503190521 51 155 1.7 3.5 0.00 0.03 0.03 73 1018.4
20260503185521 52 198 1.7 5.2 0.00 0.03 0.03 71 1018.1
20260503184520 52 220 3.5 3.5 0.00 0.03 0.03 70 1018.1
20260503183520 53 195 2.6 3.5 0.00 0.03 0.03 69 1017.9
20260503182540 53 202 3.5 4.3 0.00 0.03 0.03 67 1017.8
20260503181520 53 180 1.7 3.5 0.00 0.03 0.03 66 1017.6
20260503180520 53 149 2.6 5.2 0.00 0.03 0.03 68 1017.6
20260503175520 53 173 3.5 4.3 0.00 0.03 0.03 66 1017.4
20260503174520 54 200 2.6 5.2 0.00 0.03 0.03 63 1017.4
20260503173520 55 221 1.7 4.3 0.00 0.03 0.03 59 1017.1
20260503172519 56 237 1.7 3.5 0.00 0.03 0.03 58 1017.1
20260503171551 57 248 1.7 3.5 0.00 0.03 0.03 56 1017.0
20260503170519 59 270 0.0 0.0 0.00 0.03 0.03 54 1016.8
20260503150539 64 342 0.9 4.3 0.00 0.03 0.03 35 1016.7
20260503130530 67 328 1.7 6.1 0.00 0.03 0.03 32 1017.5
20260503110530 63 294 4.3 7.8 0.00 0.03 0.03 41 1018.2
20260503081528 59 37 0.9 2.6 0.00 0.03 0.03 44 1018.9
20260503080528 57 68 0.0 0.0 0.00 0.03 0.03 43 1018.8
20260503072528 57 71 4.3 8.7 0.00 0.03 0.03 48 1018.7
20260503071527 55 39 1.7 4.3 0.00 0.03 0.03 61 1018.7
20260503070547 54 50 3.5 7.8 0.00 0.03 0.03 58 1018.7
20260503054527 50 292 0.9 3.5 0.00 0.03 0.03 79 1018.4
20260503053527 50 292 1.7 3.5 0.00 0.03 0.03 80 1018.3
20260503052528 49 22 0.0 0.0 0.00 0.03 0.03 82 1018.1
20260503051527 49 22 0.0 0.9 0.00 0.03 0.03 84 1018.0
20260503050547 49 22 0.9 1.7 0.00 0.03 0.03 86 1017.8
20260503045526 48 22 0.9 3.5 0.00 0.03 0.03 86 1017.9
20260503044527 48 22 0.9 1.7 0.00 0.03 0.03 87 1017.8
20260503043526 48 22 0.9 1.7 0.00 0.03 0.03 85 1017.7
20260503042526 48 310 1.7 5.2 0.00 0.03 0.03 81 1017.6
20260503041526 47 17 1.7 6.1 0.00 0.03 0.03 86 1017.7
20260503040547 45 37 1.7 3.5 0.00 0.03 0.03 92 1017.5
20260503035526 44 202 3.5 3.5 0.00 0.03 0.03 93 1017.2
20260503034526 44 202 3.5 4.3 0.00 0.03 0.03 93 1017.2
20260503033526 44 202 2.6 3.5 0.00 0.03 0.03 92 1017.1
20260503032526 44 202 1.7 3.5 0.00 0.03 0.03 93 1017.1
20260503031526 44 202 3.5 3.5 0.00 0.03 0.03 93 1017.1
20260503030526 44 196 3.5 5.2 0.00 0.03 0.03 93 1017.3
20260503025526 43 180 3.5 3.5 0.00 0.03 0.03 93 1017.4
20260503024546 43 248 1.7 3.5 0.00 0.03 0.03 93 1017.6
20260503023526 43 68 0.0 0.9 0.00 0.03 0.03 93 1017.5
20260503022526 43 68 0.9 1.7 0.00 0.03 0.03 93 1017.4
20260503021525 43 91 1.7 3.5 0.00 0.03 0.03 93 1017.3
20260503020526 44 180 0.0 0.0 0.00 0.03 0.03 93 1017.1